Location: Dulzura
(32.6442°N, 116.7814°W)
Time: 20:35:14
(UTC+00:00)

MOS 1-B Rocket - Pass Details

Date: 07 December 2021
Orbit: 891 x 1605 km, 99.0° (Epoch: 17 January)

Event Time Altitude Azimuth Distance (km) Brightness Sun altitude
Rises 12:38:03 0° 162° (SSE) 3,959 7.6 -24.3°
Reaches altitude 10° 12:40:45 10° 161° (SSE) 2,909 6.9 -23.7°
Maximum altitude 12:47:11 79° 76° (ENE) 996 4.1 -22.4°
Drops below altitude 10° 12:52:55 10° 350° (N) 2,608 6.0 -21.2°
Enters shadow 12:53:37 - 350° (N) 2,878 6.2 -21.1°
